Location: Avon Lake
(41.5219°N, 93.5010°W)
Time: 19:02:04
(UTC+00:00)

BlueWalker 3 - Pass Details

Date: 04 December 2022
Orbit: 499 x 517 km, 53.2° (Epoch: 29 January)

Event Time Altitude Azimuth Distance (km) Brightness Sun altitude
Rises 01:12:55 0° 311° (NW) 2,625 6.2 -27.1°
Reaches altitude 10° 01:15:29 10° 327° (NNW) 1,733 4.9 -27.6°
Enters shadow 01:15:57 12° 331° (NNW) 1,593 4.7 -27.7°
